• In United Kingdom
  • List of Countries
  • For 7 days
  • Water Temperature
  • Satellite Maps
  • Weather Map
  • Weather Widgets
  • user-avatar
    Login

    Hourly Weather Kipungo

    Today, 24 June, Saturday

    Time Temperature Precipitation Wind Pressure Humidity
    00:00 +12°C° 0 mm 2 mps 653 mmHg 48%
    01:00 +10°C° 0 mm 2 mps 653 mmHg 51%
    02:00 +10°C° 0 mm 1 mps 653 mmHg 54%
    03:00 +10°C° 0 mm 1 mps 652 mmHg 57%
    04:00 +9°C° 0 mm 1 mps 652 mmHg 60%
    05:00 +10°C° 0 mm 1 mps 652 mmHg 60%
    06:00 +10°C° 0 mm 1 mps 653 mmHg 60%
    07:00 +9°C° 0 mm 2 mps 653 mmHg 61%
    08:00 +14°C° 0 mm 2 mps 654 mmHg 50%
    09:00 +17°C° 0 mm 3 mps 655 mmHg 40%
    10:00 +21°C° 0 mm 4 mps 656 mmHg 29%
    11:00 +23°C° 0 mm 4 mps 656 mmHg 26%
    12:00 +26°C° 0 mm 3 mps 656 mmHg 22%
    13:00 +28°C° 0 mm 3 mps 656 mmHg 19%
    14:00 +28°C° 0 mm 2 mps 655 mmHg 18%
    15:00 +28°C° 0 mm 2 mps 655 mmHg 18%
    16:00 +29°C° 0 mm 1 mps 654 mmHg 17%
    17:00 +24°C° 0 mm 1 mps 653 mmHg 28%
    18:00 +20°C° 0 mm 1 mps 652 mmHg 39%
    19:00 +14°C° 0 mm 1 mps 651 mmHg 50%
    20:00 +14°C° 0 mm 1 mps 652 mmHg 53%
    21:00 +13°C° 0 mm 1 mps 652 mmHg 56%
    22:00 +12°C° 0 mm 1 mps 652 mmHg 58%
    23:00 +12°C° 0 mm 1 mps 652 mmHg 56%

    Tomorrow, 25 June, Sunday

    Time Temperature Precipitation Wind Pressure Humidity
    00:00 +11°C° 0 mm 1 mps 652 mmHg 53%
    01:00 +11°C° 0 mm 1 mps 652 mmHg 51%
    02:00 +10°C° 0 mm 1 mps 651 mmHg 52%
    03:00 +10°C° 0 mm 1 mps 651 mmHg 53%
    04:00 +10°C° 0 mm 1 mps 651 mmHg 54%
    05:00 +10°C° 0 mm 1 mps 651 mmHg 54%
    06:00 +10°C° 0 mm 1 mps 651 mmHg 53%
    07:00 +10°C° 0 mm 1 mps 652 mmHg 53%
    08:00 +15°C° 0 mm 2 mps 653 mmHg 43%
    09:00 +19°C° 0 mm 2 mps 654 mmHg 33%
    10:00 +25°C° 0 mm 3 mps 656 mmHg 24%
    11:00 +27°C° 0 mm 3 mps 655 mmHg 21%
    12:00 +29°C° 0 mm 3 mps 655 mmHg 18%
    13:00 +31°C° 0 mm 3 mps 655 mmHg 16%
    14:00 +30°C° 0 mm 3 mps 654 mmHg 15%
    15:00 +30°C° 0 mm 3 mps 654 mmHg 15%
    16:00 +30°C° 0 mm 3 mps 653 mmHg 15%
    17:00 +26°C° 0 mm 2 mps 652 mmHg 23%
    18:00 +21°C° 0 mm 2 mps 652 mmHg 32%
    19:00 +17°C° 0 mm 2 mps 651 mmHg 40%
    20:00 +16°C° 0 mm 2 mps 651 mmHg 40%
    21:00 +16°C° 0 mm 2 mps 652 mmHg 39%
    22:00 +15°C° 0 mm 2 mps 652 mmHg 39%
    23:00 +14°C° 0 mm 1 mps 652 mmHg 44%

    Day after tomorrow, 26 June, Monday

    Time Temperature Precipitation Wind Pressure Humidity
    00:00 +12°C° 0 mm 1 mps 651 mmHg 49%
    01:00 +10°C° 0 mm 0 mps 650 mmHg 54%
    02:00 +10°C° 0 mm 0 mps 650 mmHg 58%
    03:00 +9°C° 0 mm 0 mps 650 mmHg 62%
    04:00 +9°C° 0 mm 0 mps 650 mmHg 66%
    05:00 +10°C° 0 mm 0 mps 650 mmHg 61%
    06:00 +11°C° 0 mm 1 mps 651 mmHg 56%
    07:00 +12°C° 0 mm 1 mps 652 mmHg 51%
    08:00 +18°C° 0 mm 1 mps 653 mmHg 41%
    09:00 +23°C° 0 mm 1 mps 655 mmHg 31%
    10:00 +27°C° 0 mm 2 mps 656 mmHg 21%
    11:00 +29°C° 0 mm 2 mps 656 mmHg 19%
    12:00 +30°C° 0 mm 3 mps 655 mmHg 18%
    13:00 +33°C° 0 mm 3 mps 655 mmHg 16%
    14:00 +31°C° 0 mm 3 mps 655 mmHg 16%
    15:00 +31°C° 0 mm 3 mps 654 mmHg 17%
    16:00 +31°C° 0 mm 3 mps 654 mmHg 17%
    17:00 +27°C° 0 mm 3 mps 654 mmHg 23%
    18:00 +24°C° 0 mm 3 mps 653 mmHg 28%
    19:00 +19°C° 0 mm 2 mps 653 mmHg 34%
    20:00 +18°C° 0 mm 2 mps 653 mmHg 37%
    21:00 +17°C° 0 mm 2 mps 653 mmHg 39%
    22:00 +16°C° 0 mm 2 mps 654 mmHg 42%
    23:00 +15°C° 0 mm 2 mps 653 mmHg 46%

    27 June, Tuesday

    Time Temperature Precipitation Wind Pressure Humidity
    00:00 +14°C° 0 mm 1 mps 653 mmHg 50%
    01:00 +13°C° 0 mm 1 mps 652 mmHg 55%
    02:00 +12°C° 0 mm 1 mps 652 mmHg 58%
    03:00 +11°C° 0 mm 1 mps 652 mmHg 61%
    04:00 +10°C° 0 mm 0 mps 651 mmHg 65%
    05:00 +11°C° 0 mm 1 mps 652 mmHg 62%
    06:00 +12°C° 0 mm 1 mps 653 mmHg 60%
    07:00 +12°C° 0 mm 1 mps 653 mmHg 57%
    08:00 +18°C° 0 mm 1 mps 654 mmHg 46%
    09:00 +22°C° 0 mm 1 mps 656 mmHg 35%
    10:00 +27°C° 0 mm 1 mps 657 mmHg 23%
    11:00 +29°C° 0 mm 1 mps 657 mmHg 21%
    12:00 +31°C° 0 mm 1 mps 657 mmHg 18%
    13:00 +33°C° 0 mm 1 mps 657 mmHg 16%
    14:00 +32°C° 0 mm 1 mps 656 mmHg 16%
    15:00 +32°C° 0 mm 1 mps 655 mmHg 16%
    16:00 +31°C° 0 mm 1 mps 655 mmHg 16%
    17:00 +27°C° 0 mm 1 mps 654 mmHg 26%
    18:00 +22°C° 0 mm 1 mps 653 mmHg 36%
    19:00 +18°C° 0 mm 1 mps 653 mmHg 45%
    20:00 +18°C° 0 mm 1 mps 653 mmHg 41%
    21:00 +17°C° 0 mm 2 mps 654 mmHg 37%
    22:00 +17°C° 0 mm 2 mps 654 mmHg 33%
    23:00 +16°C° 0 mm 2 mps 654 mmHg 34%

    28 June, Wednesday

    Time Temperature Precipitation Wind Pressure Humidity
    00:00 +15°C° 0 mm 2 mps 653 mmHg 35%
    01:00 +15°C° 0 mm 2 mps 653 mmHg 36%
    02:00 +14°C° 0 mm 1 mps 653 mmHg 38%
    03:00 +13°C° 0 mm 1 mps 652 mmHg 40%
    04:00 +12°C° 0 mm 1 mps 652 mmHg 42%
    05:00 +12°C° 0 mm 1 mps 652 mmHg 44%
    06:00 +11°C° 0 mm 0 mps 653 mmHg 45%
    07:00 +11°C° 0 mm 0 mps 653 mmHg 46%
    08:00 +18°C° 0 mm 1 mps 654 mmHg 36%
    09:00 +23°C° 0 mm 1 mps 656 mmHg 26%
    10:00 +28°C° 0 mm 2 mps 657 mmHg 16%
    11:00 +30°C° 0 mm 1 mps 657 mmHg 15%
    12:00 +31°C° 0 mm 1 mps 657 mmHg 14%
    13:00 +33°C° 0 mm 1 mps 656 mmHg 13%
    14:00 +33°C° 0 mm 1 mps 656 mmHg 13%
    15:00 +32°C° 0 mm 1 mps 655 mmHg 13%
    16:00 +31°C° 0 mm 1 mps 654 mmHg 13%
    17:00 +27°C° 0 mm 1 mps 654 mmHg 18%
    18:00 +23°C° 0 mm 1 mps 653 mmHg 23%
    19:00 +18°C° 0 mm 2 mps 653 mmHg 28%
    20:00 +18°C° 0 mm 2 mps 653 mmHg 29%
    21:00 +18°C° 0 mm 2 mps 653 mmHg 29%
    22:00 +17°C° 0 mm 2 mps 654 mmHg 29%
    23:00 +16°C° 0 mm 2 mps 653 mmHg 31%

    29 June, Thursday

    Time Temperature Precipitation Wind Pressure Humidity
    00:00 +15°C° 0 mm 1 mps 653 mmHg 32%
    01:00 +14°C° 0 mm 1 mps 652 mmHg 34%
    02:00 +13°C° 0 mm 1 mps 652 mmHg 36%
    03:00 +12°C° 0 mm 1 mps 652 mmHg 38%
    04:00 +12°C° 0 mm 1 mps 652 mmHg 40%
    05:00 +12°C° 0 mm 1 mps 652 mmHg 42%
    06:00 +12°C° 0 mm 1 mps 653 mmHg 43%
    07:00 +13°C° 0 mm 1 mps 653 mmHg 45%
    08:00 +18°C° 0 mm 1 mps 655 mmHg 37%
    09:00 +21°C° 0 mm 2 mps 656 mmHg 29%
    10:00 +27°C° 0 mm 2 mps 657 mmHg 21%
    11:00 +28°C° 0 mm 2 mps 657 mmHg 19%
    12:00 +30°C° 0 mm 2 mps 656 mmHg 18%
    13:00 +33°C° 0 mm 3 mps 656 mmHg 16%
    14:00 +31°C° 0 mm 2 mps 656 mmHg 16%
    15:00 +31°C° 0 mm 2 mps 655 mmHg 15%
    16:00 +31°C° 0 mm 1 mps 655 mmHg 15%
    17:00 +27°C° 0 mm 1 mps 654 mmHg 24%
    18:00 +23°C° 0 mm 1 mps 654 mmHg 34%
    19:00 +18°C° 0 mm 1 mps 653 mmHg 44%
    20:00 +18°C° 0 mm 1 mps 653 mmHg 42%
    21:00 +16°C° 0 mm 1 mps 654 mmHg 41%
    22:00 +16°C° 0 mm 1 mps 654 mmHg 39%
    23:00 +15°C° 0 mm 1 mps 654 mmHg 43%
    Show more